Weather History for St. Joseph, MO

Change the Weather History Date:

Saturday, December 29, 2012

  Actual Average Record
Temperature  
Mean Temperature 24 °F 27 °F  
Max Temperature 34 °F 36 °F 67 °F (1984)
Min Temperature 14 °F 17 °F -13 °F (1917)
Degree Days  
Heating Degree Days 41 38  
Month to date heating degree days 910 1025  
Since 1 July heating degree days 2022 2136  
Cooling Degree Days 0 0  
Month to date cooling degree days 0 0  
Year to date cooling degree days 1565 1221  
Moisture  
Dew Point 15 °F    
Average Humidity 66    
Maximum Humidity 80    
Minimum Humidity 51    
Precipitation  
Precipitation 0.00 in 0.04 in 0.21 in (1971)
Month to date precipitation 0.94 1.43  
Year to date precipitation 23.25 35.51  
Sea Level Pressure  
Sea Level Pressure 30.26 in    
Wind  
Wind Speed 8 mph (WNW)    
Max Wind Speed 21 mph    
Max Gust Speed 23 mph    
Visibility 8 miles    
Events      
T = Trace of Precipitation, MM = Missing Value Source: NWS Daily Summary

Daily Weather History Graph

Daily Weather History Graph

Search for Another Location

Airport:

Trip Planner

Search our weather history database for the weather conditions in past years. The results will help you decide how hot, cold, wet, or windy it might be!

Date:

Astronomy

Dec. 29, 2012 Rise Set
Actual Time 7:40 AM CST 5:03 PM CST
Civil Twilight 7:10 AM CST 5:34 PM CST
Nautical Twilight 6:36 AM CST 6:07 PM CST
Astronomical Twilight 6:03 AM CST 6:40 PM CST
Moon 6:37 PM CST (12/29) 8:14 AM CST (12/29)
Length of Visible Light 10h 24m
Length of Day
9h 23m
Full, 98% of the Moon is Illuminated
Dec 29
Full
Jan 4
Last Quarter
Jan 11
New
Jan 18
First Quarter
Jan 26
Full

Hourly Weather History & Observations

Time (CST) Temp. Windchill Dew Point Humidity Pressure Visibility Wind Dir Wind Speed Gust Speed Precip Events Conditions
12:38 AM 21.2 °F 6.0 °F 15.8 °F 80% 30.11 in 5.0 mi NNW 19.6 mph - N/A   Haze
12:53 AM 21.0 °F 6.6 °F 15.1 °F 78% 30.14 in 5.0 mi NW 17.3 mph - N/A   Haze
1:53 AM 19.9 °F 7.9 °F 14.0 °F 78% 30.16 in 5.0 mi NW 11.5 mph - N/A   Haze
2:30 AM 19.4 °F 6.6 °F 14.0 °F 80% 30.14 in 5.0 mi NW 12.7 mph - N/A   Haze
2:53 AM 19.9 °F 9.3 °F 14.0 °F 78% 30.19 in 5.0 mi NW 9.2 mph - N/A   Haze
3:53 AM 19.0 °F 6.1 °F 12.9 °F 77% 30.20 in 7.0 mi NNW 12.7 mph - N/A   Overcast
4:53 AM 19.0 °F 6.8 °F 14.0 °F 81% 30.22 in 8.0 mi NNW 11.5 mph - N/A   Overcast
5:53 AM 19.9 °F 6.7 °F 14.0 °F 78% 30.22 in 8.0 mi WNW 13.8 mph - N/A   Overcast
6:53 AM 19.9 °F 8.6 °F 14.0 °F 78% 30.25 in 10.0 mi WNW 10.4 mph - N/A   Overcast
7:53 AM 18.0 °F 5.4 °F 12.9 °F 81% 30.27 in 9.0 mi West 11.5 mph - N/A   Overcast
8:53 AM 18.0 °F 5.4 °F 12.0 °F 78% 30.29 in 7.0 mi West 11.5 mph - N/A   Overcast
9:53 AM 18.0 °F 8.7 °F 12.0 °F 78% 30.32 in 8.0 mi WNW 6.9 mph - N/A   Mostly Cloudy
10:04 AM 19.4 °F 9.5 °F 12.2 °F 74% 30.27 in 7.0 mi WNW 8.1 mph - N/A   Scattered Clouds
10:53 AM 21.0 °F 11.4 °F 12.9 °F 71% 30.32 in 8.0 mi West 8.1 mph - N/A   Clear
11:53 AM 25.0 °F 15.5 °F 14.0 °F 63% 30.30 in 10.0 mi West 9.2 mph - N/A   Clear
12:53 PM 28.0 °F 18.6 °F 15.1 °F 58% 30.27 in 10.0 mi WSW 10.4 mph - N/A   Clear
1:53 PM 30.9 °F 23.5 °F 16.0 °F 54% 30.26 in 10.0 mi West 8.1 mph - N/A   Clear
2:53 PM 33.1 °F 24.9 °F 18.0 °F 54% 30.27 in 10.0 mi WSW 10.4 mph - N/A   Clear
3:53 PM 33.1 °F 27.7 °F 18.0 °F 54% 30.28 in 10.0 mi WSW 5.8 mph - N/A   Clear
4:53 PM 30.9 °F 25.2 °F 19.0 °F 61% 30.29 in 10.0 mi West 5.8 mph - N/A   Clear
5:53 PM 26.1 °F 20.5 °F 17.1 °F 69% 30.29 in 10.0 mi SSW 4.6 mph - N/A   Clear
6:53 PM 25.0 °F 18.1 °F 17.1 °F 72% 30.31 in 10.0 mi SSW 5.8 mph - N/A   Clear
7:53 PM 25.0 °F - 17.1 °F 72% 30.31 in 10.0 mi Calm Calm - N/A   Clear
8:53 PM 26.1 °F 21.9 °F 17.1 °F 69% 30.30 in 10.0 mi South 3.5 mph - N/A   Clear
9:53 PM 23.0 °F - 16.0 °F 74% 30.31 in 10.0 mi Calm Calm - N/A   Clear
10:53 PM 17.1 °F - 10.9 °F 77% 30.32 in 10.0 mi Calm Calm - N/A   Clear
11:53 PM 17.1 °F - 12.0 °F 81% 30.32 in 9.0 mi Calm Calm - N/A   Clear